Weather History for Sheridan, WY

Change the Weather History Date:

Thursday, March 27, 2014

  Actual Average Record
Temperature  
Mean Temperature 35 °F 38 °F  
Max Temperature 38 °F 52 °F 75 °F (1986)
Min Temperature 31 °F 25 °F -3 °F (1937)
Degree Days  
Heating Degree Days 30 26  
Month to date heating degree days 883 821  
Since 1 July heating degree days 6633 6356  
Cooling Degree Days 0 0  
Month to date cooling degree days 0 0  
Year to date cooling degree days 0 0  
Moisture  
Dew Point 29 °F    
Average Humidity 78    
Maximum Humidity 92    
Minimum Humidity 64    
Precipitation  
Precipitation 0.29 in 0.04 in 0.97 in (1918)
Month to date precipitation 1.46 0.82  
Year to date precipitation 3.31 1.92  
Sea Level Pressure  
Sea Level Pressure 29.68 in    
Wind  
Wind Speed 10 mph (NE)    
Max Wind Speed 25 mph    
Max Gust Speed 31 mph    
Visibility 5 miles    
Events Fog , Snow    
T = Trace of Precipitation, MM = Missing Value Source: NWS Daily Summary

Daily Weather History Graph

Daily Weather History Graph

Search for Another Location

Airport:

Trip Planner

Search our weather history database for the weather conditions in past years. The results will help you decide how hot, cold, wet, or windy it might be!

Date:

Astronomy

Mar. 27, 2014 Rise Set
Actual Time 6:57 AM MDT 7:29 PM MDT
Civil Twilight 6:28 AM MDT 7:58 PM MDT
Nautical Twilight 5:53 AM MDT 8:33 PM MDT
Astronomical Twilight 5:18 AM MDT 9:09 PM MDT
Moon 4:59 AM MDT (3/27) 4:13 PM MDT (3/27)
Length of Visible Light 13h 30m
Length of Day
12h 31m
Waning Crescent, 12% of the Moon is Illuminated
Mar 27
Waning Crescent
Mar 30
New
Apr 7
First Quarter
Apr 15
Full
Apr 22
Last Quarter

Hourly Weather History & Observations

Time (MDT) Temp. Windchill Dew Point Humidity Pressure Visibility Wind Dir Wind Speed Gust Speed Precip Events Conditions
12:03 AM 37.0 °F 34.5 °F 33.1 °F 86% 29.55 in 10.0 mi WNW 3.5 mph - N/A   Overcast
12:30 AM 37.0 °F 34.5 °F 33.1 °F 86% 29.55 in 10.0 mi NW 3.5 mph - N/A   Overcast
12:53 AM 36.0 °F 32.1 °F 33.1 °F 89% 29.56 in 10.0 mi WNW 4.6 mph - N/A   Overcast
1:53 AM 36.0 °F 32.1 °F 33.1 °F 89% 29.57 in 10.0 mi NNW 4.6 mph - N/A   Overcast
2:53 AM 35.1 °F 32.2 °F 33.1 °F 92% 29.58 in 10.0 mi WNW 3.5 mph - N/A   Overcast
3:28 AM 35.1 °F 32.2 °F 32.0 °F 89% 29.57 in 10.0 mi North 3.5 mph - N/A   Overcast
3:53 AM 35.1 °F 31.0 °F 33.1 °F 92% 29.60 in 10.0 mi North 4.6 mph - N/A   Overcast
4:15 AM 35.1 °F 30.1 °F 30.9 °F 85% 29.58 in 6.0 mi North 5.8 mph - 0.00 in Snow Light Snow
4:35 AM 33.1 °F 25.5 °F 30.0 °F 89% 29.59 in 1.8 mi NNE 9.2 mph - 0.00 in Snow Light Snow
4:49 AM 32.0 °F 25.6 °F 30.2 °F 93% 29.60 in 1.0 mi NNE 6.9 mph - 0.02 in Snow Light Snow
4:53 AM 32.0 °F 24.2 °F 30.0 °F 92% 29.64 in 1.0 mi North 9.2 mph - 0.02 in Snow Light Snow
5:41 AM 32.0 °F 24.2 °F 30.0 °F 92% 29.62 in 1.0 mi NNE 9.2 mph - 0.04 in Snow Light Snow
5:44 AM 30.9 °F 22.8 °F 28.9 °F 92% 29.62 in 1.2 mi NNE 9.2 mph - 0.04 in Snow Light Snow
5:53 AM 30.9 °F 22.8 °F 28.9 °F 92% 29.67 in 1.2 mi NNE 9.2 mph - 0.05 in Snow Light Snow
6:07 AM 30.9 °F 24.3 °F 28.9 °F 92% 29.63 in 0.5 mi NNE 6.9 mph - 0.01 in Fog , Snow Snow
6:20 AM 30.9 °F 25.2 °F 28.9 °F 92% 29.64 in 0.8 mi NE 5.8 mph - 0.04 in Snow Light Snow
6:39 AM 30.9 °F - 28.9 °F 92% 29.64 in 1.0 mi Calm Calm - 0.06 in Snow Light Snow
6:53 AM 30.9 °F - 28.9 °F 92% 29.70 in 1.0 mi Calm Calm - 0.07 in Snow Light Snow
7:02 AM 30.9 °F - 28.9 °F 92% 29.65 in 0.8 mi Calm Calm - 0.01 in Snow Light Snow
7:15 AM 30.9 °F - 28.9 °F 92% 29.66 in 0.5 mi Calm Calm - 0.03 in Fog , Snow Snow
7:30 AM 30.9 °F - 28.9 °F 92% 29.66 in 0.5 mi Calm Calm - 0.04 in Fog , Snow Snow
7:39 AM 30.9 °F - 28.9 °F 92% 29.66 in 0.2 mi Calm Calm - 0.05 in Fog , Snow Heavy Snow
7:53 AM 30.9 °F - 28.9 °F 92% 29.72 in 0.5 mi Calm Calm - 0.07 in Fog , Snow Snow
8:08 AM 30.9 °F 27.5 °F 28.9 °F 92% 29.67 in 0.5 mi NE 3.5 mph - 0.01 in Fog , Snow Snow
8:18 AM 32.0 °F 28.7 °F 28.9 °F 88% 29.68 in 0.5 mi ENE 3.5 mph - 0.02 in Fog , Snow Snow
8:31 AM 32.0 °F 27.5 °F 28.9 °F 88% 29.68 in 0.8 mi East 4.6 mph - 0.02 in Snow Light Snow
8:39 AM 30.9 °F 25.2 °F 28.9 °F 92% 29.68 in 1.0 mi East 5.8 mph - 0.02 in Snow Light Snow
8:53 AM 30.9 °F 26.2 °F 28.9 °F 92% 29.75 in 0.8 mi East 4.6 mph - 0.03 in Snow Light Snow
9:07 AM 30.9 °F 26.2 °F 28.9 °F 92% 29.69 in 1.0 mi ENE 4.6 mph - 0.01 in Snow Light Snow
9:20 AM 32.0 °F 28.7 °F 28.9 °F 88% 29.69 in 1.2 mi ENE 3.5 mph - 0.01 in Snow Light Snow
9:53 AM 32.0 °F 26.4 °F 28.9 °F 88% 29.76 in 1.5 mi ENE 5.8 mph - 0.01 in Snow Light Snow
10:04 AM 32.0 °F 27.5 °F 28.9 °F 88% 29.70 in 2.0 mi East 4.6 mph - 0.01 in Snow Light Snow
10:16 AM 33.1 °F 27.7 °F 28.9 °F 85% 29.70 in 3.0 mi East 5.8 mph - 0.01 in Snow Light Snow
10:29 AM 33.1 °F 28.7 °F 28.9 °F 85% 29.70 in 4.0 mi East 4.6 mph - 0.01 in Snow Light Snow
10:42 AM 33.1 °F 30.0 °F 28.9 °F 85% 29.71 in 3.0 mi East 3.5 mph - 0.01 in Snow Light Snow
10:53 AM 33.1 °F 26.1 °F 27.0 °F 78% 29.78 in 6.0 mi ESE 8.1 mph - 0.01 in   Haze
11:04 AM 32.0 °F 24.8 °F 27.0 °F 82% 29.71 in 4.0 mi SE 8.1 mph - 0.00 in Snow Light Snow
11:49 AM 32.0 °F 23.0 °F 26.6 °F 80% 29.71 in 7.0 mi ESE 11.5 mph - 0.00 in Snow Light Snow
11:53 AM 32.0 °F 23.0 °F 27.0 °F 82% 29.77 in 8.0 mi ESE 11.5 mph - 0.00 in   Overcast
12:53 PM 34.0 °F 24.6 °F 27.0 °F 75% 29.75 in 10.0 mi SE 13.8 mph - N/A   Clear
1:22 PM 33.1 °F 23.4 °F 27.0 °F 78% 29.68 in 10.0 mi SE 13.8 mph - N/A   Mostly Cloudy
1:53 PM 35.1 °F 25.9 °F 28.0 °F 76% 29.73 in 10.0 mi SE 13.8 mph 21.9 mph N/A   Mostly Cloudy
2:13 PM 36.0 °F 25.6 °F 27.0 °F 70% 29.67 in 10.0 mi SE 18.4 mph 27.6 mph N/A   Partly Cloudy
2:53 PM 35.1 °F 24.5 °F 27.0 °F 72% 29.72 in 10.0 mi SE 18.4 mph 27.6 mph N/A   Clear
3:53 PM 37.0 °F 26.4 °F 27.0 °F 67% 29.69 in 10.0 mi SE 20.7 mph 27.6 mph N/A   Partly Cloudy
4:53 PM 37.0 °F 27.4 °F 28.0 °F 70% 29.68 in 10.0 mi SE 17.3 mph 25.3 mph N/A   Partly Cloudy
5:53 PM 36.0 °F 24.7 °F 27.0 °F 70% 29.69 in 10.0 mi SE 21.9 mph 27.6 mph N/A   Mostly Cloudy
6:53 PM 35.1 °F 29.3 °F 28.0 °F 76% 29.72 in 10.0 mi SSW 6.9 mph - N/A   Mostly Cloudy
7:53 PM 35.1 °F 31.0 °F 28.9 °F 78% 29.75 in 3.0 mi East 4.6 mph - 0.00 in Snow Light Snow
8:00 PM 34.0 °F 29.8 °F 28.9 °F 82% 29.67 in 2.5 mi ESE 4.6 mph - 0.00 in Snow Light Snow
8:31 PM 33.1 °F 26.1 °F 30.0 °F 89% 29.67 in 3.0 mi SSE 8.1 mph - 0.01 in Snow Light Snow
8:53 PM 33.1 °F 24.9 °F 30.0 °F 89% 29.74 in 10.0 mi SE 10.4 mph - 0.01 in   Overcast
9:36 PM 34.0 °F 28.0 °F 30.0 °F 85% 29.68 in 10.0 mi West 6.9 mph - N/A   Overcast
9:53 PM 34.0 °F 25.0 °F 30.0 °F 85% 29.78 in 10.0 mi WNW 12.7 mph - N/A   Overcast
10:04 PM 34.0 °F 25.0 °F 30.0 °F 85% 29.70 in 2.5 mi WNW 12.7 mph - 0.00 in Snow Light Snow
10:13 PM 33.1 °F 24.9 °F 30.0 °F 89% 29.70 in 1.5 mi West 10.4 mph - 0.00 in Snow Light Snow
10:26 PM 33.1 °F 26.1 °F 30.9 °F 92% 29.70 in 3.0 mi West 8.1 mph - 0.01 in Snow Light Snow
10:53 PM 33.1 °F 24.9 °F 30.9 °F 92% 29.79 in 4.0 mi West 10.4 mph - 0.02 in Snow Light Snow
11:02 PM 33.1 °F 26.9 °F 30.9 °F 92% 29.71 in 3.0 mi WNW 6.9 mph - 0.00 in Snow Light Snow
11:04 PM 33.1 °F 26.9 °F 30.9 °F 92% 29.71 in 2.5 mi WNW 6.9 mph - 0.00 in Snow Light Snow
11:14 PM 33.1 °F 27.7 °F 30.9 °F 92% 29.71 in 3.0 mi NW 5.8 mph - 0.00 in Snow Light Snow
11:27 PM 33.1 °F 26.9 °F 30.9 °F 92% 29.72 in 9.0 mi West 6.9 mph - 0.00 in   Overcast
11:35 PM 33.1 °F 28.7 °F 30.9 °F 92% 29.72 in 10.0 mi WNW 4.6 mph - 0.00 in   Overcast
11:46 PM 33.1 °F 27.7 °F 30.9 °F 92% 29.73 in 7.0 mi WNW 5.8 mph - 0.00 in Snow Light Snow
11:53 PM 33.1 °F 26.9 °F 30.9 °F 92% 29.81 in 7.0 mi NW 6.9 mph - 0.00 in Snow Light Snow